Track HAIYANG 2A now! 10-day predictions HAIYANG 2A is classified as:
1 37781U 11043A 23081.15738435 .00000021 00000-0 64152-4 0 9990 2 37781 99.3226 87.2183 0001039 132.6796 227.4443 13.78748718583900